• Em Portugal
  • Lista de países
  • Para 7 dias
  • Temperatura da água
  • Mapas de satélite
  • Mapa do tempo
  • Widgets de tempo
  • user-avatar
    Iniciar Sessão

    Previsão horária em Encamp

    Hoje, 21 Outubro, Domingo

    Tempo Temperatura Precipitação Vento Pressão Humidade
    00:00 +7°C° 0 mm 1 m/s 628 mmHg 83%
    01:00 +7°C° 0 mm 1 m/s 628 mmHg 81%
    02:00 +7°C° 0 mm 1 m/s 628 mmHg 80%
    03:00 +7°C° 0 mm 1 m/s 628 mmHg 78%
    04:00 +7°C° 0 mm 1 m/s 628 mmHg 77%
    05:00 +7°C° 0 mm 1 m/s 628 mmHg 77%
    06:00 +7°C° 0 mm 1 m/s 628 mmHg 76%
    07:00 +9°C° 0 mm 1 m/s 628 mmHg 71%
    08:00 +11°C° 0 mm 1 m/s 629 mmHg 65%
    09:00 +13°C° 0 mm 1 m/s 630 mmHg 59%
    10:00 +14°C° 0 mm 1 m/s 630 mmHg 54%
    11:00 +15°C° 0 mm 1 m/s 630 mmHg 48%
    12:00 +16°C° 0 mm 2 m/s 631 mmHg 43%
    13:00 +16°C° 0 mm 2 m/s 630 mmHg 44%
    14:00 +16°C° 0 mm 2 m/s 630 mmHg 46%
    15:00 +15°C° 0 mm 2 m/s 629 mmHg 47%
    16:00 +13°C° 0 mm 2 m/s 628 mmHg 55%
    17:00 +10°C° 0 mm 2 m/s 627 mmHg 63%
    18:00 +8°C° 0 mm 2 m/s 626 mmHg 72%
    19:00 +7°C° 0 mm 2 m/s 626 mmHg 67%
    20:00 +7°C° 0 mm 2 m/s 626 mmHg 62%
    21:00 +6°C° 0 mm 2 m/s 626 mmHg 57%
    22:00 +6°C° 0 mm 2 m/s 626 mmHg 56%
    23:00 +6°C° 0 mm 2 m/s 626 mmHg 56%

    Amanhã, 22 Outubro, Segunda-feira

    Tempo Temperatura Precipitação Vento Pressão Humidade
    00:00 +6°C° 0 mm 2 m/s 626 mmHg 55%
    01:00 +6°C° 0 mm 2 m/s 626 mmHg 55%
    02:00 +6°C° 0 mm 2 m/s 626 mmHg 55%
    03:00 +5°C° 0 mm 2 m/s 626 mmHg 55%
    04:00 +5°C° 0 mm 2 m/s 626 mmHg 55%
    05:00 +5°C° 0 mm 2 m/s 626 mmHg 55%
    06:00 +5°C° 0 mm 2 m/s 626 mmHg 55%
    07:00 +7°C° 0 mm 2 m/s 627 mmHg 52%
    08:00 +9°C° 0 mm 2 m/s 628 mmHg 48%
    09:00 +12°C° 0 mm 2 m/s 629 mmHg 45%
    10:00 +13°C° 0 mm 2 m/s 630 mmHg 44%
    11:00 +13°C° 0 mm 2 m/s 630 mmHg 42%
    12:00 +14°C° 0 mm 2 m/s 631 mmHg 40%
    13:00 +14°C° 0 mm 2 m/s 630 mmHg 44%
    14:00 +13°C° 0 mm 2 m/s 630 mmHg 47%
    15:00 +13°C° 0 mm 2 m/s 630 mmHg 51%
    16:00 +10°C° 0 mm 2 m/s 629 mmHg 60%
    17:00 +8°C° 0 mm 2 m/s 629 mmHg 70%
    18:00 +6°C° 0 mm 2 m/s 628 mmHg 79%
    19:00 +5°C° 0 mm 2 m/s 628 mmHg 76%
    20:00 +5°C° 0 mm 2 m/s 628 mmHg 74%
    21:00 +5°C° 0 mm 2 m/s 629 mmHg 71%
    22:00 +4°C° 0 mm 2 m/s 629 mmHg 70%
    23:00 +4°C° 0 mm 2 m/s 629 mmHg 68%

    Depois de amanhã, 23 Outubro, Terça-feira

    Tempo Temperatura Precipitação Vento Pressão Humidade
    00:00 +4°C° 0 mm 2 m/s 629 mmHg 67%
    01:00 +4°C° 0 mm 2 m/s 628 mmHg 69%
    02:00 +4°C° 0 mm 2 m/s 628 mmHg 70%
    03:00 +4°C° 0 mm 2 m/s 628 mmHg 71%
    04:00 +3°C° 0 mm 2 m/s 628 mmHg 72%
    05:00 +3°C° 0 mm 2 m/s 628 mmHg 73%
    06:00 +3°C° 0 mm 2 m/s 629 mmHg 74%
    07:00 +5°C° 0 mm 2 m/s 629 mmHg 66%
    08:00 +7°C° 0 mm 2 m/s 630 mmHg 58%
    09:00 +9°C° 0 mm 2 m/s 631 mmHg 50%
    10:00 +10°C° 0 mm 2 m/s 632 mmHg 48%
    11:00 +12°C° 0 mm 2 m/s 632 mmHg 45%
    12:00 +13°C° 0 mm 2 m/s 632 mmHg 43%
    13:00 +13°C° 0 mm 2 m/s 632 mmHg 45%
    14:00 +11°C° 0 mm 3 m/s 632 mmHg 47%
    15:00 +11°C° 0 mm 3 m/s 631 mmHg 49%
    16:00 +9°C° 0 mm 3 m/s 631 mmHg 56%
    17:00 +7°C° 0 mm 3 m/s 630 mmHg 64%
    18:00 +5°C° 0 mm 2 m/s 629 mmHg 72%
    19:00 +3°C° 0 mm 3 m/s 629 mmHg 70%
    20:00 +3°C° 0 mm 3 m/s 629 mmHg 68%
    21:00 +2°C° 0 mm 3 m/s 629 mmHg 65%
    22:00 +2°C° 0 mm 3 m/s 629 mmHg 65%
    23:00 +2°C° 0 mm 3 m/s 629 mmHg 64%

    24 Outubro, Quarta-feira

    Tempo Temperatura Precipitação Vento Pressão Humidade
    00:00 +2°C° 0 mm 3 m/s 629 mmHg 63%
    01:00 +2°C° 0 mm 3 m/s 629 mmHg 61%
    02:00 +2°C° 0 mm 3 m/s 628 mmHg 60%
    03:00 +2°C° 0 mm 3 m/s 628 mmHg 58%
    04:00 +2°C° 0 mm 3 m/s 628 mmHg 56%
    05:00 +2°C° 0 mm 3 m/s 628 mmHg 53%
    06:00 +2°C° 0 mm 3 m/s 628 mmHg 50%
    07:00 +4°C° 0 mm 3 m/s 629 mmHg 48%
    08:00 +8°C° 0 mm 3 m/s 629 mmHg 45%
    09:00 +10°C° 0 mm 3 m/s 630 mmHg 42%
    10:00 +11°C° 0 mm 3 m/s 631 mmHg 42%
    11:00 +12°C° 0 mm 3 m/s 631 mmHg 42%
    12:00 +14°C° 0 mm 4 m/s 631 mmHg 41%
    13:00 +13°C° 0 mm 3 m/s 630 mmHg 43%
    14:00 +13°C° 0 mm 3 m/s 630 mmHg 45%
    15:00 +13°C° 0 mm 3 m/s 629 mmHg 47%
    16:00 +10°C° 0 mm 3 m/s 629 mmHg 53%
    17:00 +8°C° 0 mm 3 m/s 628 mmHg 60%
    18:00 +6°C° 0 mm 2 m/s 627 mmHg 66%
    19:00 +5°C° 0 mm 3 m/s 627 mmHg 66%
    20:00 +5°C° 0 mm 3 m/s 627 mmHg 66%
    21:00 +4°C° 0 mm 3 m/s 627 mmHg 65%
    22:00 +4°C° 0 mm 3 m/s 627 mmHg 66%
    23:00 +4°C° 0 mm 3 m/s 627 mmHg 66%

    25 Outubro, Quinta-feira

    Tempo Temperatura Precipitação Vento Pressão Humidade
    00:00 +5°C° 0 mm 2 m/s 627 mmHg 66%
    01:00 +5°C° 0 mm 2 m/s 626 mmHg 67%
    02:00 +5°C° 0 mm 2 m/s 626 mmHg 67%
    03:00 +5°C° 0 mm 2 m/s 626 mmHg 68%
    04:00 +5°C° 0 mm 2 m/s 626 mmHg 68%
    05:00 +5°C° 0 mm 2 m/s 626 mmHg 68%
    06:00 +5°C° 0 mm 2 m/s 626 mmHg 68%
    07:00 +7°C° 0 mm 2 m/s 627 mmHg 61%
    08:00 +10°C° 0 mm 1 m/s 627 mmHg 55%
    09:00 +13°C° 0 mm 1 m/s 628 mmHg 49%
    10:00 +14°C° 0 mm 1 m/s 629 mmHg 46%
    11:00 +15°C° 0 mm 1 m/s 629 mmHg 44%
    12:00 +16°C° 0 mm 1 m/s 629 mmHg 41%
    13:00 +16°C° 0 mm 1 m/s 628 mmHg 44%
    14:00 +15°C° 0 mm 1 m/s 628 mmHg 47%
    15:00 +15°C° 0 mm 1 m/s 627 mmHg 51%
    16:00 +12°C° 0 mm 1 m/s 626 mmHg 60%
    17:00 +10°C° 0 mm 1 m/s 625 mmHg 70%
    18:00 +7°C° 0 mm 0 m/s 624 mmHg 80%
    19:00 +8°C° 0 mm 1 m/s 624 mmHg 80%
    20:00 +7°C° 0 mm 1 m/s 624 mmHg 80%
    21:00 +7°C° 0 mm 1 m/s 624 mmHg 80%
    22:00 +7°C° 0 mm 1 m/s 624 mmHg 79%
    23:00 +7°C° 0 mm 1 m/s 623 mmHg 79%

    26 Outubro, Sexta-feira

    Tempo Temperatura Precipitação Vento Pressão Humidade
    00:00 +6°C° 0 mm 1 m/s 623 mmHg 79%
    01:00 +6°C° 0 mm 1 m/s 623 mmHg 76%
    02:00 +6°C° 0 mm 1 m/s 622 mmHg 74%
    03:00 +6°C° 0 mm 1 m/s 622 mmHg 72%
    04:00 +6°C° 0 mm 1 m/s 622 mmHg 69%
    05:00 +6°C° 0 mm 1 m/s 621 mmHg 66%
    06:00 +5°C° 0 mm 1 m/s 621 mmHg 63%
    07:00 +8°C° 0 mm 1 m/s 622 mmHg 58%
    08:00 +10°C° 0 mm 1 m/s 623 mmHg 52%
    09:00 +12°C° 0 mm 1 m/s 624 mmHg 47%
    10:00 +13°C° 0 mm 1 m/s 624 mmHg 46%
    11:00 +13°C° 0 mm 2 m/s 624 mmHg 45%
    12:00 +14°C° 0 mm 2 m/s 624 mmHg 44%
    13:00 +13°C° 0 mm 2 m/s 623 mmHg 49%
    14:00 +13°C° 0 mm 2 m/s 622 mmHg 53%
    15:00 +12°C° 0 mm 2 m/s 622 mmHg 57%
    16:00 +10°C° 0 mm 1 m/s 621 mmHg 66%
    17:00 +8°C° 0 mm 1 m/s 620 mmHg 75%
    18:00 +7°C° 0 mm 1 m/s 619 mmHg 84%
    19:00 +7°C° 0 mm 1 m/s 619 mmHg 83%
    20:00 +7°C° 0 mm 1 m/s 619 mmHg 82%
    21:00 +7°C° 0 mm 1 m/s 619 mmHg 81%
    22:00 +6°C° 0.1 mm 1 m/s 618 mmHg 81%
    23:00 +6°C° 0.1 mm 1 m/s 618 mmHg 80%
    Mostrar mais